| time (UTC) | temp F | wind direction | speed MPH | gust MPH | rain 1hr in | rain 24hr in | rain mn in | humidity % | barometer mb |
| 20260502232008 | 64 | 316 | 2.0 | 6.0 | 0.00 | 0.00 | 0.00 | 37 | 1016.3 |
| 20260502231524 | 64 | 297 | 1.0 | 5.0 | 0.00 | 0.00 | 0.00 | 39 | 1016.2 |
| 20260502231003 | 64 | 293 | 0.0 | 5.0 | 0.00 | 0.00 | 0.00 | 38 | 1016.2 |
| 20260502230031 | 65 | 288 | 2.0 | 5.0 | 0.00 | 0.00 | 0.00 | 37 | 1016.2 |
| 20260502225508 | 65 | 11 | 1.0 | 3.0 | 0.00 | 0.00 | 0.00 | 36 | 1016.2 |
| 20260502225007 | 65 | 271 | 0.0 | 5.0 | 0.00 | 0.00 | 0.00 | 38 | 1016.2 |
| 20260502224519 | 65 | 292 | 0.0 | 5.0 | 0.00 | 0.00 | 0.00 | 38 | 1016.2 |
| 20260502224008 | 65 | 358 | 0.0 | 4.0 | 0.00 | 0.00 | 0.00 | 37 | 1016.1 |
| 20260502223508 | 66 | 294 | 0.0 | 4.0 | 0.00 | 0.00 | 0.00 | 37 | 1016.1 |
| 20260502223017 | 66 | 274 | 0.0 | 6.0 | 0.00 | 0.00 | 0.00 | 38 | 1016.2 |
| 20260502222508 | 67 | 30 | 0.0 | 6.0 | 0.00 | 0.00 | 0.00 | 35 | 1016.1 |
| 20260502222009 | 68 | 271 | 1.0 | 6.0 | 0.00 | 0.00 | 0.00 | 35 | 1016.1 |
| 20260502221513 | 67 | 292 | 1.0 | 6.0 | 0.00 | 0.00 | 0.00 | 33 | 1016.1 |
| 20260502221007 | 67 | 281 | 1.0 | 4.0 | 0.00 | 0.00 | 0.00 | 33 | 1016.0 |
| 20260502220511 | 67 | 293 | 1.0 | 6.0 | 0.00 | 0.00 | 0.00 | 35 | 1015.9 |
| 20260502220013 | 67 | 281 | 1.0 | 6.0 | 0.00 | 0.00 | 0.00 | 35 | 1016.0 |
| 20260502215009 | 67 | 291 | 2.0 | 6.0 | 0.00 | 0.00 | 0.00 | 32 | 1015.8 |
| 20260502214523 | 67 | 18 | 0.0 | 4.0 | 0.00 | 0.00 | 0.00 | 35 | 1015.9 |
| 20260502214004 | 67 | 314 | 1.0 | 5.0 | 0.00 | 0.00 | 0.00 | 35 | 1015.8 |
| 20260502213511 | 67 | 23 | 1.0 | 5.0 | 0.00 | 0.00 | 0.00 | 34 | 1015.8 |
| 20260502213024 | 67 | 342 | 1.0 | 4.0 | 0.00 | 0.00 | 0.00 | 34 | 1015.8 |
| 20260502212510 | 67 | 280 | 0.0 | 6.0 | 0.00 | 0.00 | 0.00 | 36 | 1015.8 |
| 20260502212007 | 67 | 285 | 0.0 | 6.0 | 0.00 | 0.00 | 0.00 | 34 | 1015.8 |
| 20260502211520 | 68 | 41 | 2.0 | 6.0 | 0.00 | 0.00 | 0.00 | 35 | 1015.8 |
| 20260502211008 | 68 | 316 | 1.0 | 6.0 | 0.00 | 0.00 | 0.00 | 34 | 1015.8 |
| 20260502210018 | 67 | 306 | 2.0 | 9.0 | 0.00 | 0.00 | 0.00 | 34 | 1015.9 |
| 20260502205508 | 68 | 7 | 3.0 | 9.0 | 0.00 | 0.00 | 0.00 | 34 | 1015.9 |
| 20260502205011 | 68 | 344 | 3.0 | 9.0 | 0.00 | 0.00 | 0.00 | 34 | 1015.9 |
| 20260502204009 | 69 | 30 | 0.0 | 5.0 | 0.00 | 0.00 | 0.00 | 36 | 1015.9 |
| 20260502203509 | 68 | 278 | 2.0 | 10.0 | 0.00 | 0.00 | 0.00 | 33 | 1015.9 |
| 20260502203015 | 68 | 34 | 2.0 | 10.0 | 0.00 | 0.00 | 0.00 | 32 | 1016.0 |
| 20260502202507 | 68 | 37 | 2.0 | 10.0 | 0.00 | 0.00 | 0.00 | 32 | 1016.1 |
| 20260502201527 | 67 | 302 | 5.0 | 11.0 | 0.00 | 0.00 | 0.00 | 32 | 1016.3 |
| 20260502201006 | 68 | 298 | 4.0 | 9.0 | 0.00 | 0.00 | 0.00 | 32 | 1016.3 |
| 20260502200506 | 68 | 271 | 2.0 | 7.0 | 0.00 | 0.00 | 0.00 | 31 | 1016.3 |
| 20260502200026 | 69 | 262 | 1.0 | 7.0 | 0.00 | 0.00 | 0.00 | 33 | 1016.3 |
| 20260502195511 | 68 | 270 | 2.0 | 7.0 | 0.00 | 0.00 | 0.00 | 33 | 1016.2 |
| 20260502195009 | 68 | 331 | 3.0 | 9.0 | 0.00 | 0.00 | 0.00 | 30 | 1016.4 |
| 20260502194528 | 68 | 330 | 2.0 | 9.0 | 0.00 | 0.00 | 0.00 | 32 | 1016.3 |
| 20260502194008 | 68 | 269 | 2.0 | 7.0 | 0.00 | 0.00 | 0.00 | 31 | 1016.4 |
| 20260502193507 | 67 | 276 | 2.0 | 7.0 | 0.00 | 0.00 | 0.00 | 32 | 1016.5 |
| 20260502193023 | 67 | 337 | 1.0 | 5.0 | 0.00 | 0.00 | 0.00 | 33 | 1016.7 |
| 20260502192509 | 68 | 332 | 1.0 | 13.0 | 0.00 | 0.00 | 0.00 | 34 | 1016.6 |
| 20260502192012 | 67 | 13 | 2.0 | 13.0 | 0.00 | 0.00 | 0.00 | 32 | 1016.6 |
| 20260502191520 | 68 | 302 | 2.0 | 9.0 | 0.00 | 0.00 | 0.00 | 32 | 1016.6 |
| 20260502190513 | 68 | 265 | 2.0 | 6.0 | 0.00 | 0.00 | 0.00 | 34 | 1016.7 |
| 20260502190016 | 67 | 110 | 3.0 | 9.0 | 0.00 | 0.00 | 0.00 | 30 | 1016.7 |
| 20260502185512 | 67 | 123 | 2.0 | 9.0 | 0.00 | 0.00 | 0.00 | 33 | 1016.7 |
| 20260502185010 | 67 | 322 | 3.0 | 10.0 | 0.00 | 0.00 | 0.00 | 35 | 1016.8 |
| 20260502184541 | 67 | 357 | 2.0 | 10.0 | 0.00 | 0.00 | 0.00 | 34 | 1016.8 |
| 20260502183507 | 66 | 309 | 3.0 | 11.0 | 0.00 | 0.00 | 0.00 | 33 | 1016.9 |
| 20260502183028 | 67 | 262 | 3.0 | 8.0 | 0.00 | 0.00 | 0.00 | 35 | 1016.9 |
| 20260502182506 | 68 | 301 | 2.0 | 8.0 | 0.00 | 0.00 | 0.00 | 32 | 1016.9 |
| 20260502182007 | 68 | 296 | 2.0 | 8.0 | 0.00 | 0.00 | 0.00 | 34 | 1016.8 |
| 20260502181014 | 67 | 57 | 5.0 | 14.0 | 0.00 | 0.00 | 0.00 | 32 | 1017.0 |
| 20260502180507 | 67 | 35 | 4.0 | 12.0 | 0.00 | 0.00 | 0.00 | 31 | 1017.1 |
| 20260502164016 | 63 | 323 | 3.0 | 9.0 | 0.00 | 0.00 | 0.00 | 40 | 1017.6 |
| 20260502163506 | 62 | 33 | 2.0 | 7.0 | 0.00 | 0.00 | 0.00 | 39 | 1017.7 |
| 20260502163004 | 63 | 27 | 1.0 | 7.0 | 0.00 | 0.00 | 0.00 | 41 | 1017.9 |
| 20260502162505 | 62 | 39 | 2.0 | 7.0 | 0.00 | 0.00 | 0.00 | 39 | 1017.8 |
| 20260502161505 | 61 | 343 | 1.0 | 12.0 | 0.00 | 0.00 | 0.00 | 39 | 1017.9 |
| 20260502161003 | 61 | 32 | 2.0 | 10.0 | 0.00 | 0.00 | 0.00 | 41 | 1017.9 |
| 20260502160509 | 61 | 342 | 3.0 | 10.0 | 0.00 | 0.00 | 0.00 | 39 | 1017.9 |
| 20260502152004 | 59 | 14 | 3.0 | 9.0 | 0.00 | 0.00 | 0.00 | 46 | 1017.9 |
| 20260502151513 | 58 | 253 | 0.0 | 8.0 | 0.00 | 0.00 | 0.00 | 46 | 1017.7 |
| 20260502151003 | 58 | 278 | 1.0 | 8.0 | 0.00 | 0.00 | 0.00 | 46 | 1017.7 |
| 20260502130507 | 53 | 24 | 0.0 | 4.0 | 0.00 | 0.00 | 0.00 | 62 | 1017.1 |
| 20260502123508 | 51 | 276 | 1.0 | 5.0 | 0.00 | 0.00 | 0.00 | 66 | 1016.9 |
| 20260502123015 | 51 | 30 | 0.0 | 5.0 | 0.00 | 0.00 | 0.00 | 65 | 1017.0 |
| 20260502122507 | 51 | 30 | 0.0 | 4.0 | 0.00 | 0.00 | 0.00 | 66 | 1016.8 |
| 20260502122004 | 51 | 283 | 0.0 | 4.0 | 0.00 | 0.00 | 0.00 | 66 | 1016.8 |
| 20260502121517 | 50 | 19 | 0.0 | 2.0 | 0.00 | 0.00 | 0.00 | 68 | 1016.9 |
| 20260502121006 | 50 | 285 | 0.0 | 2.0 | 0.00 | 0.00 | 0.00 | 68 | 1016.7 |
| 20260502120507 | 50 | 266 | 0.0 | 1.0 | 0.00 | 0.00 | 0.00 | 67 | 1016.6 |
| 20260502115008 | 50 | 291 | 0.0 | 0.0 | 0.00 | 0.00 | 0.00 | 68 | 1016.4 |
| 20260502114512 | 50 | 291 | 0.0 | 0.0 | 0.00 | 0.00 | 0.00 | 67 | 1016.3 |
| 20260502114006 | 50 | 291 | 0.0 | 1.0 | 0.00 | 0.00 | 0.00 | 66 | 1016.4 |
| 20260502113024 | 50 | 16 | 0.0 | 1.0 | 0.00 | 0.00 | 0.00 | 65 | 1016.2 |
| 20260502112505 | 50 | 21 | 0.0 | 1.0 | 0.00 | 0.00 | 0.00 | 66 | 1016.2 |
| 20260502112009 | 50 | 297 | 0.0 | 1.0 | 0.00 | 0.00 | 0.00 | 65 | 1016.2 |
| 20260502111520 | 50 | 297 | 0.0 | 1.0 | 0.00 | 0.00 | 0.00 | 65 | 1016.1 |
| 20260502111004 | 50 | 12 | 0.0 | 1.0 | 0.00 | 0.00 | 0.00 | 65 | 1016.1 |
| 20260502110023 | 51 | 311 | 0.0 | 0.0 | 0.00 | 0.00 | 0.00 | 64 | 1015.9 |
| 20260502105512 | 51 | 29 | 0.0 | 1.0 | 0.00 | 0.00 | 0.00 | 63 | 1015.9 |
| 20260502105008 | 51 | 281 | 0.0 | 1.0 | 0.00 | 0.00 | 0.00 | 63 | 1015.9 |
| 20260502104517 | 51 | 306 | 0.0 | 1.0 | 0.00 | 0.00 | 0.00 | 63 | 1015.8 |
| 20260502104008 | 51 | 288 | 0.0 | 1.0 | 0.00 | 0.00 | 0.00 | 62 | 1015.7 |
| 20260502103510 | 51 | 343 | 0.0 | 1.0 | 0.00 | 0.00 | 0.00 | 62 | 1015.6 |
| 20260502102509 | 51 | 347 | 0.0 | 1.0 | 0.00 | 0.00 | 0.00 | 61 | 1015.6 |
| 20260502102011 | 51 | 352 | 0.0 | 2.0 | 0.00 | 0.00 | 0.00 | 60 | 1015.7 |
| 20260502101512 | 52 | 275 | 0.0 | 2.0 | 0.00 | 0.00 | 0.00 | 60 | 1015.8 |
| 20260502101006 | 52 | 280 | 0.0 | 3.0 | 0.00 | 0.00 | 0.00 | 60 | 1015.6 |
| 20260502091519 | 53 | 268 | 0.0 | 2.0 | 0.00 | 0.00 | 0.00 | 55 | 1015.6 |
| 20260502091007 | 53 | 351 | 0.0 | 2.0 | 0.00 | 0.00 | 0.00 | 54 | 1015.4 |
| 20260502090507 | 53 | 290 | 0.0 | 3.0 | 0.00 | 0.00 | 0.00 | 55 | 1015.4 |
| 20260502071515 | 55 | 347 | 1.0 | 5.0 | 0.00 | 0.00 | 0.00 | 52 | 1015.8 |
| 20260502071006 | 55 | 349 | 0.0 | 5.0 | 0.00 | 0.00 | 0.00 | 51 | 1015.9 |
| 20260502070514 | 55 | 290 | 0.0 | 5.0 | 0.00 | 0.00 | 0.00 | 52 | 1015.9 |
| 20260502070032 | 55 | 51 | 1.0 | 4.0 | 0.00 | 0.00 | 0.00 | 51 | 1016.2 |
| 20260502065011 | 55 | 258 | 0.0 | 4.0 | 0.00 | 0.00 | 0.00 | 52 | 1016.3 |
| 20260502064527 | 55 | 347 | 0.0 | 4.0 | 0.00 | 0.00 | 0.00 | 51 | 1016.1 |
| 20260502064003 | 55 | 289 | 0.0 | 5.0 | 0.00 | 0.00 | 0.00 | 51 | 1016.3 |
| 20260502063026 | 55 | 259 | 0.0 | 5.0 | 0.00 | 0.00 | 0.00 | 51 | 1016.2 |
| 20260502062511 | 56 | 269 | 1.0 | 5.0 | 0.00 | 0.00 | 0.00 | 50 | 1016.1 |
| 20260502062013 | 56 | 4 | 1.0 | 5.0 | 0.00 | 0.00 | 0.00 | 49 | 1016.2 |
| 20260502061010 | 56 | 311 | 1.0 | 7.0 | 0.00 | 0.00 | 0.00 | 49 | 1016.6 |
| 20260502060021 | 56 | 344 | 1.0 | 7.0 | 0.00 | 0.00 | 0.00 | 50 | 1016.3 |
| 20260502055510 | 56 | 283 | 0.0 | 5.0 | 0.00 | 0.00 | 0.00 | 50 | 1016.2 |
| 20260502055011 | 56 | 25 | 1.0 | 5.0 | 0.00 | 0.00 | 0.00 | 48 | 1016.1 |
| 20260502054518 | 56 | 43 | 1.0 | 5.0 | 0.00 | 0.00 | 0.00 | 48 | 1016.0 |
| 20260502054009 | 56 | 279 | 1.0 | 5.0 | 0.00 | 0.00 | 0.00 | 49 | 1015.9 |
| 20260502053508 | 56 | 354 | 0.0 | 6.0 | 0.00 | 0.00 | 0.00 | 48 | 1015.9 |
| 20260502053029 | 56 | 311 | 2.0 | 6.0 | 0.00 | 0.00 | 0.00 | 47 | 1016.1 |
| 20260502052513 | 56 | 286 | 0.0 | 6.0 | 0.00 | 0.00 | 0.00 | 48 | 1016.0 |
| 20260502052010 | 56 | 70 | 1.0 | 5.0 | 0.00 | 0.00 | 0.00 | 47 | 1015.9 |
| 20260502051529 | 56 | 47 | 0.0 | 6.0 | 0.00 | 0.00 | 0.00 | 48 | 1015.9 |
| 20260502051005 | 56 | 296 | 2.0 | 6.0 | 0.00 | 0.00 | 0.00 | 46 | 1016.0 |
| 20260502045504 | 57 | 336 | 0.0 | 4.0 | 0.00 | 0.00 | 0.00 | 47 | 1015.8 |
| 20260502045005 | 57 | 313 | 1.0 | 4.0 | 0.00 | 0.00 | 0.00 | 47 | 1015.7 |
| 20260502044506 | 57 | 297 | 0.0 | 4.0 | 0.00 | 0.00 | 0.00 | 47 | 1015.7 |
| 20260502044004 | 57 | 338 | 0.0 | 4.0 | 0.00 | 0.00 | 0.00 | 48 | 1015.6 |
| 20260502043010 | 57 | 261 | 0.0 | 4.0 | 0.00 | 0.00 | 0.00 | 48 | 1015.7 |
| 20260502042504 | 57 | 293 | 0.0 | 2.0 | 0.00 | 0.00 | 0.00 | 48 | 1015.7 |
| 20260502042005 | 57 | 69 | 0.0 | 2.0 | 0.00 | 0.00 | 0.00 | 48 | 1015.7 |
| 20260502041511 | 57 | 264 | 0.0 | 2.0 | 0.00 | 0.00 | 0.00 | 49 | 1015.7 |
| 20260502040504 | 58 | 307 | 1.0 | 5.0 | 0.00 | 0.00 | 0.00 | 47 | 1015.8 |
| 20260502035006 | 58 | 310 | 0.0 | 6.0 | 0.00 | 0.00 | 0.00 | 47 | 1015.8 |
| 20260502034003 | 58 | 281 | 0.0 | 6.0 | 0.00 | 0.00 | 0.00 | 48 | 1015.8 |
| 20260502033502 | 59 | 281 | 0.0 | 6.0 | 0.00 | 0.00 | 0.00 | 48 | 1015.6 |
| 20260502032505 | 59 | 22 | 2.0 | 8.0 | 0.00 | 0.00 | 0.00 | 48 | 1015.9 |
| 20260502032006 | 59 | 322 | 0.0 | 5.0 | 0.00 | 0.00 | 0.00 | 46 | 1016.0 |
| 20260502031508 | 59 | 25 | 1.0 | 7.0 | 0.00 | 0.00 | 0.00 | 47 | 1016.0 |
| 20260502031005 | 59 | 274 | 1.0 | 7.0 | 0.00 | 0.00 | 0.00 | 47 | 1016.2 |
| 20260502030505 | 59 | 59 | 0.0 | 4.0 | 0.00 | 0.00 | 0.00 | 48 | 1016.2 |
| 20260502025504 | 60 | 302 | 2.0 | 8.0 | 0.00 | 0.00 | 0.00 | 50 | 1016.1 |
| 20260502024531 | 60 | 34 | 1.0 | 8.0 | 0.00 | 0.00 | 0.00 | 50 | 1016.2 |
| 20260502024003 | 60 | 80 | 1.0 | 8.0 | 0.00 | 0.00 | 0.00 | 52 | 1016.0 |
| 20260502023012 | 60 | 321 | 2.0 | 6.0 | 0.00 | 0.00 | 0.00 | 58 | 1015.9 |
| 20260502022504 | 61 | 297 | 1.0 | 5.0 | 0.00 | 0.00 | 0.00 | 58 | 1015.8 |
| 20260502022004 | 61 | 285 | 1.0 | 5.0 | 0.00 | 0.00 | 0.00 | 60 | 1015.8 |
| 20260502021514 | 61 | 300 | 1.0 | 9.0 | 0.00 | 0.00 | 0.00 | 61 | 1015.7 |
| 20260502021005 | 61 | 307 | 0.0 | 9.0 | 0.00 | 0.00 | 0.00 | 61 | 1015.6 |
| 20260502020503 | 61 | 340 | 0.0 | 3.0 | 0.00 | 0.00 | 0.00 | 62 | 1015.5 |
| 20260502020016 | 61 | 1 | 0.0 | 4.0 | 0.00 | 0.00 | 0.00 | 62 | 1015.4 |
| 20260502015003 | 61 | 335 | 0.0 | 6.0 | 0.00 | 0.00 | 0.00 | 63 | 1015.4 |
| 20260502014522 | 61 | 352 | 1.0 | 3.0 | 0.00 | 0.00 | 0.00 | 63 | 1015.4 |
| 20260502013503 | 61 | 290 | 0.0 | 5.0 | 0.00 | 0.00 | 0.00 | 67 | 1015.4 |
| 20260502013008 | 61 | 32 | 1.0 | 5.0 | 0.00 | 0.00 | 0.00 | 67 | 1015.3 |
| 20260502012003 | 61 | 298 | 0.0 | 1.0 | 0.00 | 0.00 | 0.00 | 67 | 1015.4 |
| 20260502010502 | 61 | 283 | 0.0 | 1.0 | 0.00 | 0.00 | 0.00 | 67 | 1015.3 |
| 20260502010016 | 61 | 283 | 0.0 | 0.0 | 0.00 | 0.00 | 0.00 | 67 | 1015.3 |
| 20260502005503 | 61 | 283 | 0.0 | 0.0 | 0.00 | 0.00 | 0.00 | 70 | 1015.1 |
| 20260502005007 | 61 | 283 | 0.0 | 0.0 | 0.00 | 0.00 | 0.00 | 68 | 1015.0 |
| 20260502004514 | 61 | 283 | 0.0 | 0.0 | 0.00 | 0.00 | 0.00 | 66 | 1014.9 |
| 20260502004005 | 62 | 283 | 0.0 | 0.0 | 0.00 | 0.00 | 0.00 | 65 | 1015.0 |
| 20260502003503 | 62 | 283 | 0.0 | 0.0 | 0.00 | 0.00 | 0.00 | 62 | 1014.9 |
| 20260502003012 | 62 | 283 | 0.0 | 0.0 | 0.00 | 0.00 | 0.00 | 60 | 1014.7 |
| 20260502001004 | 63 | 283 | 0.0 | 0.0 | 0.00 | 0.00 | 0.00 | 61 | 1014.3 |
| 20260502000503 | 63 | 283 | 0.0 | 1.0 | 0.00 | 0.00 | 0.00 | 57 | 1014.3 |
| 20260502000010 | 63 | 283 | 0.0 | 1.0 | 0.00 | 0.00 | 0.00 | 57 | 1014.2 |
| 20260501235504 | 64 | 283 | 0.0 | 1.0 | 0.00 | 0.00 | 0.00 | 57 | 1014.3 |
| 20260501235007 | 64 | 289 | 0.0 | 0.0 | 0.00 | 0.00 | 0.00 | 56 | 1014.1 |
| 20260501234516 | 64 | 289 | 0.0 | 2.0 | 0.00 | 0.00 | 0.00 | 55 | 1014.2 |
| 20260501234004 | 64 | 290 | 0.0 | 2.0 | 0.00 | 0.00 | 0.00 | 55 | 1014.2 |
| 20260501233504 | 64 | 271 | 0.0 | 1.0 | 0.00 | 0.00 | 0.00 | 55 | 1014.1 |
| 20260501233017 | 64 | 275 | 0.0 | 0.0 | 0.00 | 0.00 | 0.00 | 55 | 1014.0 |
| 20260501232504 | 64 | 275 | 0.0 | 0.0 | 0.00 | 0.00 | 0.00 | 55 | 1013.9 |